Location: Monteux
(44.0348°N, 4.9972°E)
Time: 13:34:45
(UTC+00:00)

YAOGAN 6 - Pass Details

Date: 30 November 2020
Orbit: 466 x 502 km, 97.0° (Epoch: 26 January)

Event Time Altitude Azimuth Distance (km) Brightness Sun altitude
Rises 17:09:22 0° 181° (S) 2,567 6.5 -11.6°
Reaches altitude 10° 17:11:30 10° 188° (S) 1,684 5.7 -12.0°
Maximum altitude 17:14:59 43° 261° (W) 696 3.9 -12.6°
Drops below altitude 10° 17:18:27 10° 335° (NNW) 1,679 5.4 -13.2°
Sets 17:20:35 0° 342° (NNW) 2,558 6.2 -13.5°
